Home > Weather > Southampton > Past weeks

Flag for United Kingdom Past Weather in Southampton, England, United Kingdom — Yesterday and Last 2 Weeks

Now
57 °F

Passing clouds.


Feels Like: 56 °F
Forecast: 43 / 59 °F
Wind: 7 mph from East

Location: Southampton / Weather Centre

Current Time: May 24, 2016 at 10:55:42 AM

Latest Report: May 24, 2016 at 10:20 AM


Visibility: N/A

Pressure: 30.15 "Hg

Humidity: 55%

Dew Point: 41 °F

Location of SouthamptonLocation

Past Weather in Southampton — Graph

°F

Southampton Temperature Yesterday

Maximum temperature yesterday: 63 °F (at 2:50 PM)
Minimum temperature yesterday: 45 °F (at 5:50 AM)
Average temperature yesterday: 56 °F

High & Low Weather Summary for the Past Weeks

 TemperatureHumidityPressure
High72 °F (May 12, 4:50 PM)100% (May 10, 7:20 AM)30.21 "Hg (May 10, 7:20 AM)
Low41 °F (May 15, 6:50 AM)42% (May 16, 3:50 PM)29.56 "Hg (May 12, 5:50 AM)
Average57 °F74%29.88 "Hg
* Reported May 9 9:20 AM — May 24 9:20 AM, Southampton, Weather by CustomWeather, © 2016

Note: Actual official high and low records may vary slightly from our data, if they occured in-between our weather recording intervals... More about our weather records

Advertising

Southampton Weather History for the Previous 24 Hours

Scroll right to see more
 ConditionsComfort  
Time TempWeatherWind HumidityBarometerVisibility
9:20 AM
Tue, May 24
55 °FPassing clouds.7 mph63%30.18 "HgN/A
8:50 AM54 °FPassing clouds.7 mph63%30.18 "HgN/A
8:20 AM52 °FPassing clouds.7 mph67%30.18 "HgN/A
7:50 AM50 °FPassing clouds.7 mph76%30.18 "HgN/A
7:20 AM48 °FPassing clouds.6 mph87%30.18 "HgN/A
6:50 AM48 °FSunny.6 mph87%30.18 "Hg10 mi
6:20 AM45 °FSunny.6 mph100%30.18 "Hg10 mi
5:50 AM43 °FClear.3 mph93%30.18 "Hg10 mi
10:20 PM
Mon, May 23
50 °FClear.3 mph76%30.15 "Hg10 mi
9:50 PM52 °FSunny.3 mph67%30.15 "Hg10 mi
9:20 PM55 °FPassing clouds.3 mph63%30.15 "HgN/A
8:50 PM57 °FPassing clouds.6 mph59%30.15 "HgN/A
8:20 PM57 °FScattered showers. Passing clouds.7 mph59%30.12 "HgN/A
7:50 PM59 °FScattered showers. Passing clouds.7 mph55%30.12 "HgN/A
7:20 PM59 °FScattered showers. Passing clouds.8 mph55%30.12 "HgN/A
6:50 PM61 °FScattered showers. Passing clouds.10 mph52%30.12 "HgN/A
6:20 PM61 °FScattered showers. Scattered clouds.12 mph52%30.12 "HgN/A
5:50 PM61 °FScattered showers. Scattered clouds.12 mph52%30.09 "HgN/A
5:20 PM61 °FScattered showers. Scattered clouds.8 mph52%30.09 "HgN/A
4:50 PM59 °FScattered showers. Scattered clouds.9 mph55%30.09 "HgN/A
4:20 PM59 °FScattered clouds.9 mph55%30.09 "HgN/A
3:50 PM61 °FScattered clouds.9 mph55%30.09 "HgN/A
3:20 PM63 °FScattered clouds.9 mph49%30.09 "HgN/A
2:50 PM63 °FScattered clouds.9 mph49%30.09 "HgN/A
2:20 PM59 °FScattered clouds.10 mph51%30.09 "HgN/A
1:50 PM59 °FScattered clouds.9 mph51%30.09 "HgN/A
1:20 PM61 °FScattered clouds.9 mph52%30.09 "HgN/A
12:50 PM59 °FScattered clouds.10 mph55%30.09 "HgN/A
12:20 PM61 °FScattered clouds.8 mph52%30.09 "HgN/A
11:50 AM57 °FScattered clouds.9 mph59%30.09 "HgN/A
11:20 AM57 °FScattered clouds.8 mph67%30.07 "HgN/A
10:50 AM57 °FScattered clouds.9 mph63%30.07 "HgN/A
10:20 AM57 °FScattered clouds.9 mph63%30.07 "HgN/A
Weather by CustomWeather, © 2016

See weather overviewHow to use our weather pages